Probability
0 0 0 0 0 0 0 0 0 0 0 0 0 1 4 5 4 5 10 13 16 17 14 13 13 14 14 14 14 14 15 17 15 13 12 10 6 5 6 6 5 4 3 3
0 0 0 0 0 0 0 0 0 0 0 0 0 1 3 4 3 3 7 11 13 14 13 11 11 13 13 13 13 13 13 14 13 11 11 9 7 5 5 6 5 3 2 1
0 0 0 0 0 0 0 0 0 0 0 0 0 0 2 2 2 2 3 6 8 11 11 11 10 11 13 13 12 11 12 11 10 9 10 9 7 4 3 3 2 2 1 0
0 0 0 0 0 0 0 0 0 0 0 0 0 0 1 2 2 2 2 3 5 8 11 11 11 11 12 12 12 12 12 11 9 8 9 9 6 3 1 1 0 0 0 0
0 0 0 0 0 0 0 0 0 0 0 0 0 0 1 2 2 3 3 3 5 7 9 9 9 9 10 10 11 11 11 10 9 8 7 6 4 1 0 0 0 0 0 0
0 0 0 0 0 0 0 0 0 0 0 0 0 0 0 1 1 1 3 4 5 7 7 7 7 6 6 6 7 8 8 8 7 6 5 3 1 0 0 0 0 0 0 0
0 0 0 0 0 0 0 0 0 0 0 0 0 0 0 0 0 0 2 4 6 7 7 6 6 4 3 3 4 4 6 6 4 3 3 1 0 0 0 0 0 0 0 0
0 0 0 0 0 0 0 0 0 0 0 0 0 0 0 0 0 0 1 3 5 6 6 6 5 2 1 2 3 2 4 4 2 1 1 0 0 0 0 0 0 0 0 0
0 0 0 0 0 0 0 0 0 0 0 0 0 0 0 0 0 0 1 3 5 6 5 5 4 1 1 2 2 1 2 2 1 0 0 0 0 0 0 0 0 0 0 0
0 0 0 0 0 0 0 0 0 0 0 0 0 0 0 0 0 0 1 3 5 5 4 4 3 1 1 1 1 0 0 0 0 0 0 0 0 0 0 0 0 0 0 0
0 0 0 0 0 0 0 0 0 0 0 0 0 0 0 0 0 1 1 3 4 4 3 3 2 1 0 0 0 0 0 0 0 0 0 0 0 0 0 0 0 0 0 0
1 0 0 0 0 0 0 0 0 0 1 1 0 0 0 0 0 1 2 3 3 3 3 3 2 1 0 0 0 0 0 0 0 0 0 0 0 0 0 0 0 0 0 0
2 1 0 0 0 0 0 0 0 0 1 1 0 0 0 0 0 1 2 2 2 3 3 3 2 2 1 1 1 0 0 0 0 0 0 0 0 0 0 0 0 0 0 0
4 2 0 0 0 0 0 0 0 0 1 1 0 0 0 0 0 0 1 1 1 2 4 4 3 3 3 2 2 1 0 0 0 0 0 0 0 0 0 0 0 0 0 0
5 3 1 0 0 0 0 0 0 0 0 0 0 0 0 0 0 0 0 0 1 3 5 5 4 4 5 4 3 2 1 0 0 0 0 0 0 0 0 0 0 0 0 0
6 4 2 0 0 0 0 0 0 0 0 0 0 0 0 0 0 0 1 1 2 4 6 6 5 6 8 6 4 4 2 1 0 0 0 0 0 0 0 0 0 0 0 0
9 7 3 1 0 0 0 0 0 0 0 0 0 0 0 1 1 1 2 3 3 3 5 6 6 8 9 8 6 5 4 2 1 0 0 0 0 0 0 0 0 0 0 0
10 8 4 1 0 0 0 0 0 0 0 0 0 0 0 1 2 2 2 3 3 3 4 5 6 8 9 8 7 7 5 3 1 0 0 0 0 0 0 0 0 0 0 1
7 7 5 2 1 0 0 0 0 0 0 0 0 0 0 1 1 1 2 3 3 3 4 7 8 9 10 9 8 8 5 2 0 0 0 0 0 0 0 0 0 0 1 2
5 6 4 2 1 0 0 0 0 0 0 0 0 0 0 1 2 3 3 4 4 5 9 12 13 13 14 12 10 8 5 2 0 0 0 0 1 2 1 1 1 1 1 2
4 4 3 1 0 0 0 0 0 0 0 1 1 0 1 2 4 5 5 6 8 11 15 18 18 18 18 15 12 9 6 2 0 0 1 1 2 2 2 3 2 2 1 1
2 2 2 1 1 1 0 0 0 0 0 0 1 1 1 2 4 5 7 10 13 15 18 19 19 20 18 15 13 13 10 5 2 1 2 2 2 1 2 3 4 3 2 1
1 2 3 3 3 2 1 1 1 0 0 0 0 0 0 1 2 5 8 12 14 15 18 18 19 19 17 14 14 15 15 10 5 3 2 2 1 0 0 2 2 2 1 1
0 1 3 4 4 3 1 1 1 0 0 0 0 0 0 0 1 4 9 11 11 12 16 19 21 21 18 14 13 14 14 11 6 2 1 1 0 0 0 0 1 1 1 1
0 0 1 2 2 1 1 0 0 0 0 0 0 0 0 0 1 3 7 9 8 9 12 16 20 21 17 13 11 11 10 7 3 1 0 0 0 1 1 1 1 2 2 2
0 0 0 1 0 0 0 0 0 1 1 1 0 0 0 0 0 2 5 7 7 7 9 12 16 17 14 12 11 10 8 5 2 1 0 0 1 2 2 2 1 1 1 1
Wind_Speed
8 10 9 5 6 8 8 9 7 2 1 5 5 3 5 7 7 8 8 9 9 9 9 9 9 9 9 8 9 9 8 8 6 4 4 4 4 4 4 3 4 3 3 2
9 12 8 5 5 8 9 9 6 2 3 5 4 4 5 7 8 8 8 9 10 10 10 10 10 9 10 9 9 9 9 7 6 4 3 2 3 3 4 4 4 3 3 2
14 5 3 6 7 8 9 8 6 3 4 5 5 7 8 8 8 8 9 10 11 11 11 11 10 10 10 9 9 7 7 7 6 6 5 5 4 4 5 5 4 3 3 2
11 8 6 9 8 8 7 2 4 5 7 4 5 5 8 10 10 11 11 11 12 12 12 12 11 11 10 10 9 8 8 7 6 6 5 6 4 4 4 3 3 4 3 3
9 7 8 9 6 6 2 0 4 6 7 6 6 8 4 10 11 13 13 13 13 13 14 13 13 12 11 10 9 9 8 8 7 5 6 5 4 4 4 3 5 3 4 3
12 6 7 5 1 3 5 5 5 7 8 7 2 6 2 7 11 13 15 15 15 14 14 13 13 12 11 11 10 9 9 8 7 6 6 4 5 4 4 4 4 3 3 3
13 11 8 6 6 7 8 8 6 6 5 2 2 5 2 4 7 11 15 17 16 15 15 14 14 14 12 12 11 10 10 9 8 7 6 6 6 5 5 4 4 3 3 3
12 11 11 10 9 6 9 10 7 6 5 2 4 5 1 5 6 9 13 15 17 17 16 15 15 14 14 13 12 11 10 9 8 8 7 6 6 5 4 3 2 2 1 2
10 9 6 7 6 7 6 8 6 8 7 7 2 2 4 6 9 11 14 16 17 18 17 16 16 15 14 14 13 12 11 10 9 8 8 7 6 4 4 4 3 3 2 2
9 8 6 6 6 6 7 5 5 7 6 6 3 3 2 10 13 14 15 17 18 18 17 17 16 15 14 14 13 12 12 11 10 9 8 7 6 5 5 4 3 2 2 2
10 10 8 8 11 10 9 8 8 7 7 8 5 2 4 7 12 15 16 17 18 19 18 17 16 15 14 14 14 13 12 12 10 9 8 7 7 6 6 5 5 4 3 3
8 9 10 10 4 5 9 10 9 8 7 7 8 1 6 4 10 13 15 16 18 18 18 17 17 16 15 15 14 14 13 12 11 10 9 8 7 7 7 6 5 5 5 4
5 6 9 8 8 9 10 11 11 10 8 8 9 1 8 6 9 12 14 16 16 17 17 17 16 16 15 15 14 14 13 12 12 11 10 9 8 8 7 6 6 6 5 5
5 8 11 12 6 6 9 11 12 12 10 10 10 7 5 8 10 13 14 16 17 17 17 17 16 16 15 15 14 14 13 13 12 11 10 10 9 8 8 7 7 6 6 5
6 10 12 13 10 9 10 11 12 15 14 13 10 10 7 6 10 13 15 16 18 18 18 18 17 16 16 15 14 14 13 13 12 12 11 10 9 9 8 7 7 6 6 6
6 8 10 12 12 11 12 13 13 14 14 14 13 12 6 4 7 11 15 17 19 19 20 19 18 17 17 16 15 14 14 13 13 12 11 10 10 9 9 8 8 7 7 6
6 6 8 10 9 10 14 14 14 14 12 12 13 10 4 5 7 11 14 17 18 19 20 20 19 18 17 17 16 15 14 14 13 13 12 11 10 10 9 9 8 8 7 7
6 7 6 9 8 13 7 2 7 11 12 11 11 8 5 5 5 8 12 15 17 18 19 19 18 17 16 16 15 14 14 14 14 13 12 11 11 10 9 9 8 8 7 7
8 8 8 9 11 10 6 3 4 7 8 6 7 7 5 3 5 8 11 13 15 16 16 16 17 17 16 16 16 15 14 14 14 14 13 12 11 11 10 10 9 8 7 7
8 8 9 9 9 9 2 3 1 6 7 1 2 4 4 4 8 5 7 9 12 13 13 14 15 15 15 15 15 15 15 15 14 14 13 12 11 11 11 10 9 8 7 8
9 9 11 11 9 6 3 2 4 7 2 4 4 4 4 5 4 2 3 7 9 11 12 13 14 14 14 15 15 16 15 14 13 12 12 11 11 11 10 9 8 8 8 8
7 7 8 7 8 4 4 1 3 5 5 4 5 4 4 4 3 1 3 6 9 11 12 13 12 12 12 14 15 15 14 13 12 12 11 11 10 10 9 9 8 8 8 8
4 3 2 3 1 4 3 3 4 4 5 5 5 5 4 3 2 1 3 5 8 10 11 12 12 12 12 13 14 14 12 12 12 12 11 10 10 9 8 9 9 8 8 8
1 2 3 4 2 2 3 3 4 5 6 6 5 5 3 2 1 1 3 5 7 9 10 11 12 12 12 12 13 12 12 12 12 12 10 9 9 9 9 8 8 8 8 8
4 3 4 5 2 2 2 4 5 5 5 4 3 2 1 1 1 2 3 4 6 7 8 9 10 11 12 12 11 11 12 12 12 10 9 9 9 8 7 8 7 8 7 6
3 4 5 4 4 5 4 5 5 4 4 4 3 2 2 1 2 3 3 4 5 7 8 8 9 9 10 11 10 10 10 11 10 9 9 8 7 6 7 7 7 9 10 8
Wind_Direction
200 232 233 240 261 294 296 289 291 315 134 238 240 225 172 173 177 172 170 168 162 151 146 146 151 153 151 151 154 158 157 152 156 158 167 160 152 147 140 132 120 130 121 114
213 231 242 270 265 262 264 271 275 172 171 247 241 223 177 179 186 181 173 169 159 153 151 152 153 158 157 156 158 157 156 152 162 149 146 139 132 143 126 117 110 112 109 121
234 241 216 245 247 254 258 266 281 265 186 217 242 210 183 178 186 181 176 171 164 164 163 161 159 160 157 158 159 152 147 147 149 151 151 141 148 160 152 143 130 108 108 105
242 247 244 249 250 260 269 290 266 226 230 223 239 269 173 184 188 188 184 176 173 171 171 167 166 168 163 158 151 144 145 144 146 157 157 166 177 167 137 144 121 121 110 108
224 223 238 254 267 263 306 143 230 231 249 263 221 271 150 178 195 190 184 180 175 175 174 170 169 168 163 158 152 148 144 144 146 147 147 172 166 142 139 140 125 138 119 117
251 242 257 262 235 212 153 173 194 222 243 254 250 269 203 183 204 189 182 181 177 174 171 169 166 160 159 157 154 150 145 144 146 150 153 165 146 146 149 157 149 168 143 133
230 229 214 208 200 181 207 232 234 224 232 271 119 259 292 163 187 187 180 180 178 174 172 171 169 166 164 163 161 156 152 150 151 153 156 156 153 159 165 174 161 188 161 145
227 225 202 206 227 221 222 251 273 293 303 323 179 255 50 142 166 178 177 178 178 177 177 176 174 173 172 170 167 164 160 156 156 156 153 153 161 174 156 161 163 166 156 108
236 233 182 201 225 236 218 238 284 279 279 280 247 209 180 170 178 178 179 179 181 180 179 179 179 179 178 175 174 171 165 163 164 162 157 159 166 161 144 153 181 155 138 140
249 251 210 184 195 219 260 252 226 254 281 282 260 240 196 178 189 183 182 183 182 181 181 181 182 182 181 177 175 174 173 171 169 168 170 163 166 164 167 180 160 145 154 150
239 245 218 197 219 214 194 215 242 260 278 288 298 9 76 180 187 186 186 184 182 183 183 182 182 181 181 179 176 176 177 175 174 174 172 165 168 169 176 179 176 175 179 180
224 243 246 231 233 280 238 238 230 248 252 258 284 343 109 166 184 188 186 182 183 185 184 182 180 179 180 181 179 178 179 179 178 176 175 175 174 179 185 182 181 183 187 196
199 226 234 221 204 204 225 225 232 245 262 257 265 257 127 158 181 188 187 181 181 185 184 182 180 180 183 182 181 180 182 181 180 177 179 178 181 185 190 183 183 191 197 204
248 234 245 251 257 213 213 220 222 231 245 251 252 269 193 186 188 188 187 184 182 184 184 184 182 183 184 183 182 182 183 182 179 180 184 182 186 187 189 189 189 196 203 209
236 241 241 258 270 262 251 238 221 228 248 264 269 267 258 216 200 191 188 187 186 186 187 188 186 185 184 183 182 183 182 180 179 182 187 186 187 188 192 194 198 200 207 217
231 255 254 248 247 248 251 248 239 236 248 257 266 268 270 235 200 191 190 191 191 190 190 190 189 186 186 185 184 182 181 179 180 186 188 185 188 190 195 199 202 204 212 223
229 235 246 249 241 242 242 240 240 241 243 250 257 263 244 218 201 198 193 195 196 194 192 191 190 189 188 187 184 183 181 178 182 188 188 186 191 196 199 203 204 210 217 221
246 239 244 251 239 241 248 244 250 251 252 254 260 268 258 252 226 212 203 199 199 197 193 191 190 187 186 184 182 182 178 179 183 187 189 188 194 199 200 205 211 216 221 225
228 233 239 242 237 244 232 216 243 250 255 261 262 266 272 263 229 214 202 202 201 197 193 189 188 184 180 179 177 177 178 181 186 189 191 191 194 198 201 207 213 218 223 230
210 231 241 237 241 240 217 110 233 251 242 37 300 281 276 225 231 192 169 192 196 193 188 185 182 178 176 175 172 176 181 184 190 192 192 191 194 200 205 210 215 218 224 235
195 210 227 236 243 250 63 85 212 238 24 23 337 310 273 244 285 12 170 180 181 179 177 174 173 175 175 171 172 181 184 189 191 188 188 190 195 202 208 212 216 224 230 238
221 216 218 227 234 229 71 203 282 3 3 342 331 317 292 271 287 259 160 158 163 165 166 167 168 170 169 170 175 183 187 186 182 182 186 191 196 205 205 211 218 225 234 239
259 297 286 264 301 36 14 346 347 331 319 323 326 325 300 272 241 154 149 155 158 157 159 162 162 161 163 171 179 184 182 176 175 180 187 192 197 206 213 214 219 225 228 243
231 297 272 272 271 345 337 341 329 318 310 310 309 308 298 271 228 134 133 149 154 154 156 159 159 161 164 171 179 180 171 171 174 180 184 191 200 207 210 222 228 234 239 244
299 264 264 261 299 317 50 13 347 337 334 330 328 319 317 281 141 130 129 137 144 149 152 157 161 164 164 167 172 173 168 170 175 178 186 195 203 210 215 219 233 242 249 260
288 289 291 313 351 324 345 356 343 348 4 5 14 47 66 73 109 116 111 119 132 141 145 151 158 159 159 162 165 166 164 169 174 180 189 198 207 206 218 225 229 221 236 242